Location: Newark
(44.3681°N, 100.3364°W)
Time: 00:35:07
(UTC+00:00)

Vanguard 1 - Pass Details

Date: 25 February 2020
Orbit: 649 x 3833 km, 34.2° (Epoch: 06 April)

Event Time Altitude Azimuth Distance (km) Brightness Sun altitude
Rises 20:45:47 0° 278° (W) 6,297 14.5 31.0°
Reaches altitude 10° 20:52:44 10° 260° (W) 4,533 14.2 30.3°
Maximum altitude 20:58:31 15° 230° (SW) 3,443 14.6 29.7°
Drops below altitude 10° 21:02:58 10° 197° (SSW) 3,304 14.1 29.2°
Sets 21:06:44 0° 174° (S) 3,823 13.7 28.8°
